2019-093H

Last updated on Mon Jan 20 2020 00:02:04 GMT+0000 (Coordinated Universal Time)

1 44886U 19093H 20019.49466883 .00000092 00000-0 18229-4 0 9999 2 44886 97.9756 96.4985 0015442 176.3608 183.7721 14.82320912 4491

Satellite not in orbit

2019-093H